DW7857 Weather Reports


Display with metric or nautical units.
time (UTC)temp
F
wind
direction
speed
MPH
gust
MPH
rain 1hr
in
rain 24hr
in
rain mn
in
humidity
%
barometer
mb
20181021230011 54 65 9.0 11.0 0.00 0.00 0.00 77 1027.6
20181021225011 54 214 8.0 11.0 0.00 0.00 0.00 79 1027.5
20181021224032 54 40 10.0 16.0 0.00 0.00 0.00 79 1027.4
20181021223011 55 78 13.0 19.0 0.00 0.00 0.00 75 1027.5
20181021222010 55 348 12.0 17.0 0.00 0.00 0.00 76 1027.2
20181021221010 55 47 10.0 13.0 0.00 0.00 0.00 76 1027.1
20181021220011 56 61 11.0 15.0 0.00 0.00 0.00 75 1027.0
20181021215011 56 57 13.0 16.0 0.00 0.00 0.00 78 1026.8
20181021214010 56 52 10.0 16.0 0.00 0.00 0.00 86 1026.5
20181021213011 57 6 11.0 13.0 0.00 0.00 0.00 86 1026.2
20181021212011 57 331 8.0 11.0 0.00 0.00 0.00 86 1026.1
20181021211011 57 6 7.0 11.0 0.00 0.00 0.00 86 1025.9
20181021210011 57 70 5.0 8.0 0.00 0.00 0.00 85 1025.6
20181021205011 57 31 3.0 4.0 0.00 0.00 0.00 85 1025.6
20181021204010 57 339 5.0 8.0 0.00 0.00 0.00 84 1025.5
20181021203010 57 334 5.0 7.0 0.00 0.00 0.00 84 1025.6
20181021202011 57 355 4.0 6.0 0.00 0.00 0.00 84 1025.3
20181021201010 57 13 4.0 6.0 0.00 0.00 0.00 83 1025.3
20181021200010 57 44 4.0 6.0 0.00 0.00 0.00 83 1025.2
20181021195011 57 9 3.0 5.0 0.00 0.00 0.00 83 1025.1
20181021194010 57 348 4.0 6.0 0.00 0.00 0.00 83 1025.3
20181021193011 57 326 4.0 6.0 0.00 0.00 0.00 82 1025.1
20181021192011 57 335 5.0 7.0 0.00 0.00 0.00 82 1025.0
20181021191011 57 337 4.0 5.0 0.00 0.00 0.00 81 1024.8
20181021190011 57 345 3.0 6.0 0.00 0.00 0.00 81 1024.9
20181021185011 57 318 5.0 7.0 0.00 0.00 0.00 81 1024.9
20181021184011 57 320 4.0 8.0 0.00 0.00 0.00 80 1024.9
20181021183011 57 118 2.0 5.0 0.00 0.00 0.00 79 1024.5
20181021182010 57 30 5.0 6.0 0.00 0.00 0.00 78 1024.6
20181021181010 57 5 3.0 6.0 0.00 0.00 0.00 77 1024.5
20181021180010 58 348 3.0 8.0 0.00 0.00 0.00 77 1024.4
20181021175010 58 318 2.0 4.0 0.00 0.00 0.00 76 1024.0
20181021174011 58 334 4.0 6.0 0.00 0.00 0.00 75 1024.1
20181021173011 58 20 5.0 8.0 0.00 0.00 0.00 75 1023.9
20181021172010 58 72 4.0 6.0 0.00 0.00 0.00 75 1024.1
20181021171010 59 56 2.0 4.0 0.00 0.00 0.00 74 1023.6
20181021170011 59 33 3.0 6.0 0.00 0.00 0.00 74 1023.4
20181021165011 59 85 3.0 5.0 0.00 0.00 0.00 74 1023.5
20181021164010 60 63 5.0 8.0 0.00 0.00 0.00 75 1023.5
20181021163010 60 67 3.0 5.0 0.00 0.00 0.00 74 1023.5
20181021162010 60 59 4.0 5.0 0.00 0.00 0.00 73 1023.5
20181021161010 61 66 5.0 7.0 0.00 0.00 0.00 70 1023.3
20181021160010 64 66 6.0 9.0 0.00 0.00 0.00 63 1023.3
20181021155010 66 49 4.0 5.0 0.00 0.00 0.00 60 1023.1
20181021154010 67 56 2.0 5.0 0.00 0.00 0.00 59 1023.0
20181021153010 68 345 3.0 4.0 0.00 0.00 0.00 58 1023.0
20181021152010 68 50 3.0 4.0 0.00 0.00 0.00 57 1023.1
20181021151010 68 48 4.0 7.0 0.00 0.00 0.00 59 1023.1
20181021150010 67 44 5.0 8.0 0.00 0.00 0.00 60 1023.1
20181021145010 67 65 6.0 8.0 0.00 0.00 0.00 59 1023.2
20181021144010 67 84 6.0 9.0 0.00 0.00 0.00 60 1023.0
20181021143010 69 47 3.0 6.0 0.00 0.00 0.00 54 1023.3
20181021142010 69 51 4.0 6.0 0.00 0.00 0.00 53 1023.2
20181021141010 69 329 4.0 6.0 0.00 0.00 0.00 53 1023.1
20181021140010 70 46 2.0 6.0 0.00 0.00 0.00 51 1023.2
20181021135010 71 67 3.0 4.0 0.00 0.00 0.00 52 1023.3
20181021134010 70 71 0.0 4.0 0.00 0.00 0.00 52 1023.2
20181021133010 70 61 1.0 4.0 0.00 0.00 0.00 52 1023.4
20181021132010 71 9 1.0 4.0 0.00 0.00 0.00 52 1023.4
20181021131010 71 0 0.0 0.0 0.00 0.00 0.00 52 1023.7
20181021130010 70 0 0.0 0.0 0.00 0.00 0.00 53 1023.5
20181021125010 71 68 1.0 4.0 0.00 0.00 0.00 52 1023.5
20181021124010 71 330 1.0 3.0 0.00 0.00 0.00 56 1023.7
20181021123010 70 0 0.0 0.0 0.00 0.00 0.00 54 1023.7
20181021122010 69 245 0.0 2.0 0.00 0.00 0.00 59 1023.5
20181021121010 67 334 3.0 7.0 0.00 0.00 0.00 60 1023.7
20181021120010 67 301 1.0 7.0 0.00 0.00 0.00 60 1023.8
20181021115010 66 356 5.0 8.0 0.00 0.00 0.00 60 1024.0
20181021114011 66 12 6.0 9.0 0.00 0.00 0.00 61 1023.8
20181021113011 65 347 6.0 8.0 0.00 0.00 0.00 60 1024.2
20181021112011 68 345 2.0 6.0 0.00 0.00 0.00 58 1024.1
20181021111010 68 47 0.0 3.0 0.00 0.00 0.00 60 1024.4
20181021110010 67 0 0.0 0.0 0.00 0.00 0.00 61 1024.2
20181021105010 58 0 0.0 0.0 0.00 0.00 0.00 97 1024.2
20181021104010 58 0 0.0 0.0 0.00 0.00 0.00 97 1024.1
20181021103010 58 0 0.0 0.0 0.00 0.00 0.00 97 1024.2
20181021102010 58 0 0.0 0.0 0.00 0.00 0.00 97 1024.4
20181021101010 58 0 0.0 0.0 0.00 0.00 0.00 97 1024.5
20181021100010 58 0 0.0 0.0 0.00 0.00 0.00 97 1024.6
20181021095010 58 0 0.0 0.0 0.00 0.00 0.00 97 1024.6
20181021094010 58 0 0.0 0.0 0.00 0.00 0.00 97 1024.8
20181021093010 47 0 0.0 0.0 0.00 0.00 0.00 92 1024.8
20181021092010 47 0 0.0 0.0 0.00 0.00 0.00 92 1024.8
20181021091010 47 0 0.0 0.0 0.00 0.00 0.00 92 1024.8
20181021090011 47 0 0.0 0.0 0.00 0.00 0.00 92 1024.7
20181021085010 47 0 0.0 0.0 0.00 0.00 0.00 92 1024.8
20181021084010 47 0 0.0 0.0 0.00 0.00 0.00 92 1024.6
20181021083010 47 0 0.0 0.0 0.00 0.00 0.00 92 1024.6
20181021082010 47 0 0.0 0.0 0.00 0.00 0.00 92 1024.6
20181021081010 47 0 0.0 0.0 0.00 0.00 0.00 92 1024.6
20181021080010 47 0 0.0 0.0 0.00 0.00 0.00 92 1024.6
20181021075010 47 0 0.0 0.0 0.00 0.00 0.00 92 1024.6
20181021074010 47 0 0.0 0.0 0.00 0.00 0.00 92 1024.4
20181021073010 47 0 0.0 0.0 0.00 0.00 0.00 92 1024.4
20181021072010 47 0 0.0 0.0 0.00 0.00 0.00 92 1024.4
20181021071010 47 0 0.0 0.0 0.00 0.00 0.00 92 1024.2
20181021070010 47 0 0.0 0.0 0.00 0.00 0.00 92 1024.2
20181021065010 47 0 0.0 0.0 0.00 0.00 0.00 92 1023.9
20181021064010 47 0 0.0 0.0 0.00 0.00 0.00 92 1023.8
20181021063010 47 0 0.0 0.0 0.00 0.00 0.00 92 1023.9
20181021062010 47 0 0.0 0.0 0.00 0.00 0.00 92 1023.8
20181021061010 47 0 0.0 0.0 0.00 0.00 0.00 92 1023.7
20181021060010 47 0 0.0 0.0 0.00 0.00 0.00 92 1024.0
20181021055010 47 0 0.0 0.0 0.00 0.00 0.00 92 1024.0
20181021054010 47 0 0.0 0.0 0.00 0.00 0.00 92 1023.9
20181021053010 47 0 0.0 0.0 0.00 0.00 0.00 92 1023.8
20181021052010 47 0 0.0 0.0 0.00 0.00 0.00 92 1023.9
20181021051010 47 0 0.0 0.0 0.00 0.00 0.00 92 1023.9
20181021050010 47 0 0.0 0.0 0.00 0.00 0.00 92 1024.0
20181021045010 47 0 0.0 0.0 0.00 0.00 0.00 92 1024.0
20181021044010 47 0 0.0 0.0 0.00 0.00 0.00 92 1024.0
20181021043010 47 0 0.0 0.0 0.00 0.00 0.00 92 1023.9
20181021042010 47 0 0.0 0.0 0.00 0.00 0.00 92 1024.1
20181021041010 47 0 0.0 0.0 0.00 0.00 0.00 92 1024.0
20181021040010 47 0 0.0 0.0 0.00 0.00 0.00 92 1024.3
20181021035010 47 0 0.0 0.0 0.00 0.00 0.00 92 1024.4
20181021034010 47 0 0.0 0.0 0.00 0.00 0.00 92 1024.5
20181021033010 47 0 0.0 0.0 0.00 0.00 0.00 92 1024.5
20181021032010 47 0 0.0 0.0 0.00 0.00 0.00 92 1024.6
20181021031010 47 0 0.0 0.0 0.00 0.00 0.00 92 1024.5
20181021030010 47 0 0.0 0.0 0.00 0.00 0.00 92 1024.5
20181021025010 47 0 0.0 0.0 0.00 0.00 0.00 92 1024.6
20181021024010 47 0 0.0 0.0 0.00 0.00 0.00 92 1024.7
20181021023010 47 0 0.0 0.0 0.00 0.00 0.00 92 1024.7
20181021022010 47 0 0.0 0.0 0.00 0.00 0.00 92 1025.0
20181021021010 47 0 0.0 0.0 0.00 0.00 0.00 92 1025.1
20181021020010 47 0 0.0 0.0 0.00 0.00 0.00 92 1025.3
20181021015010 47 0 0.0 0.0 0.00 0.00 0.00 92 1025.2
20181021014010 47 0 0.0 0.0 0.00 0.00 0.00 92 1025.4
20181021013010 47 0 0.0 0.0 0.00 0.00 0.00 92 1025.2
20181021012010 47 0 0.0 0.0 0.00 0.00 0.00 92 1025.2
20181021011010 47 0 0.0 0.0 0.00 0.00 0.00 92 1025.5
20181021010010 47 0 0.0 0.0 0.00 0.00 0.00 92 1025.5
20181021005010 47 0 0.0 0.0 0.00 0.00 0.00 92 1025.6
20181021004010 47 0 0.0 0.0 0.00 0.00 0.00 92 1025.8
20181021003010 47 0 0.0 0.0 0.00 0.00 0.00 92 1025.6
20181021002010 47 0 0.0 0.0 0.00 0.00 0.00 92 1025.8
20181021001010 47 0 0.0 0.0 0.00 0.00 0.00 92 1026.0
20181021000023 47 0 0.0 0.0 0.00 0.00 0.00 92 1026.0
20181020235010 47 0 0.0 0.0 0.00 0.00 0.00 92 1026.1
20181020234010 47 0 0.0 0.0 0.00 0.00 0.00 92 1026.2
20181020233010 47 0 0.0 0.0 0.00 0.00 0.00 92 1026.0
20181020232010 47 0 0.0 0.0 0.00 0.00 0.00 92 1026.1
20181020231010 48 0 0.0 0.0 0.00 0.00 0.00 92 1026.0